Location: Newark
(40.2370°N, 1.4081°W)
Time: 19:48:50
(UTC+00:00)

Tiangong 2 - Visible Passes

Search period start: 21 March 2019 00:00
Search period end: 31 March 2019 00:00
Orbit: 379 x 390 km, 42.8° (Epoch: 21 March)

Date Brightness Start Highest point End Pass type
(mag) Time Alt. Az. Time Alt. Az. Time Alt. Az.
21 Mar 2.6 04:07:14 36° E 04:07:14 36° E 04:09:19 10° E visible
21 Mar 2.0 05:39:53 10° W 05:42:48 33° SSW 05:45:43 10° SE visible
22 Mar 1.2 04:42:57 50° WSW 04:43:24 57° SSW 04:46:32 10° ESE visible
23 Mar 4.0 03:46:33 14° ESE 03:46:33 14° ESE 03:47:07 10° ESE visible
23 Mar 2.7 05:18:48 14° WSW 05:20:24 20° SSW 05:22:48 10° SSE visible
24 Mar 3.0 04:22:33 21° SSE 04:22:33 21° SSE 04:23:58 10° SE visible
25 Mar 3.5 04:58:44 10° SSW 04:58:44 10° SSW 04:58:52 10° SSW visible
29 Mar 3.3 19:09:42 10° SSE 19:10:44 11° SE 19:11:21 11° SE visible
30 Mar 1.8 19:44:39 10° SW 19:47:32 34° SSE 19:47:35 34° SSE visible
